Weather in Antonitsi

Ukraine / Khmelnitsky District     49°48′29″N   26°52′00″E
temp.,
°C
wind,
m/s
gust,
m/s
humid.,
%
clouds,
%
prec.,
mm/h
press.,
hPa
HPBL,
m
23 april, fri
fri2300:00+6nw4591100 2.8 1017522
03:00+4wnw3892100 2.8 1017390
06:00+4wnw3887100 0.0 1018320
09:00+5nw5769100 0.0 1019611
12:00+8nw564818 0.0 10191610
15:00+8wnw574899 0.0 10191708
18:00+8wnw7960100 0.6 10191441
21:00+4w377212 0.8 1020124
24 april, sat
sat2400:00+2w410795 0.1 1021269
03:00+2w41185100 0.1 1021348
06:000nw41094100 1.9 1021406
09:00+3wnw711755 1.9 10231166
12:00+6wnw71052100 0.3 10232057
15:00+7wnw81049100 0.4 10222104
18:00+8wnw594532 0.0 10212140
21:00+4wsw22648 0.1 102218
25 april, sun
sun2500:00+3sw367262 0.0 102199
03:00+2sw5128859 0.0 1020285
06:00+3wsw51190100 0.1 1019479
09:00+3nw6891100 0.3 1020714
12:00+6nw68455 0.0 10201581
15:00+8nw684090 0.0 10202101
18:00+7nw684355 0.0 10192098
21:00+3nw23625 0.0 102027
26 april, mon
mon2600:00+2wnw226396 0.0 102018
03:00+1w36778 0.0 1019125
06:00−1w38805 0.0 1019149
09:00+4wnw69625 0.0 10191024
12:00+6wnw81048100 0.3 10182088
15:00+7wnw81039100 0.3 10172577
18:00+6nw69405 0.0 10172234
21:00+2nw2258100 0.0 101710
27 april, tue
tue2700:00+2sw225798 0.0 101725
03:00+1wsw36645 0.0 101792
06:000wsw49825 0.0 1016159
09:00+5wnw46580 0.0 1016560
12:00+8wnw56455 0.0 10161626
15:00+10wnw454490 0.0 10151836
18:00+10wnw334681 0.0 10141629
21:00+5ne226710 0.0 101519